Location: Bremen
(53.0796°N, 8.8241°E)
Time: 12:02:42
(UTC+01:00)

ISS - Pass Details

Date: 11 November 2017
Orbit: 402 x 407 km, 51.6° (Epoch: 22 November)

Event Time Altitude Azimuth Distance (km) Brightness Sun altitude
Exits shadow 05:09:51 44° 119° (ESE) 570 -2.8 -22.7°
Drops below altitude 10° 05:12:15 10° 102° (ESE) 1,457 0.1 -22.3°
Sets 05:14:20 0° 100° (E) 2,316 1.5 -22.0°
